Time,TemperatureF,DewpointF,PressureIn,WindDirection,WindDirectionDegrees,WindSpeedMPH,WindSpeedGustMPH,Humidity,HourlyPrecipIn,Conditions,Clouds,dailyrainin,SoftwareType,DateUTC
2013-02-21 00:12:00,27.0,14.0,-100.00,North,5,12.0,21.0,58,-99.99,,,-99.99,,2013-02-21 05:12:00,
2013-02-21 00:22:00,27.0,14.0,-100.00,North,5,12.0,21.0,58,-99.99,,,-99.99,,2013-02-21 05:22:00,
2013-02-21 00:36:00,27.0,14.0,-100.00,NNW,330,7.0,13.0,57,-99.99,,,-99.99,,2013-02-21 05:36:00,
2013-02-21 00:46:00,27.0,14.0,-100.00,North,5,8.0,17.0,57,-99.99,,,-99.99,,2013-02-21 05:46:00,
2013-02-21 00:54:00,27.0,14.0,-100.00,North,5,8.0,17.0,57,-99.99,,,-99.99,,2013-02-21 05:54:00,
2013-02-21 01:01:00,27.0,13.0,-100.00,NNW,330,8.0,13.0,56,-99.99,,,-99.99,,2013-02-21 06:01:00,
2013-02-21 01:11:00,27.0,13.0,-100.00,North,350,8.0,12.0,56,-99.99,,,-99.99,,2013-02-21 06:11:00,
2013-02-21 01:21:00,27.0,13.0,-100.00,WNW,300,3.0,13.0,55,-99.99,,,-99.99,,2013-02-21 06:21:00,
2013-02-21 01:31:00,26.0,13.0,-100.00,East,80,3.0,7.0,56,-99.99,,,-99.99,,2013-02-21 06:31:00,
2013-02-21 01:41:00,26.0,12.0,-100.00,NNE,20,2.0,9.0,55,-99.99,,,-99.99,,2013-02-21 06:41:00,
2013-02-21 01:51:00,26.0,12.0,-100.00,West,275,2.0,13.0,55,-99.99,,,-99.99,,2013-02-21 06:51:00,
2013-02-21 02:01:00,26.0,12.0,-100.00,North,10,6.0,15.0,55,-99.99,,,-99.99,,2013-02-21 07:01:00,
2013-02-21 02:11:00,26.0,12.0,-100.00,WNW,285,5.0,20.0,55,-99.99,,,-99.99,,2013-02-21 07:11:00,
2013-02-21 02:21:00,26.0,12.0,-100.00,WNW,290,2.0,12.0,56,-99.99,,,-99.99,,2013-02-21 07:21:00,
2013-02-21 02:32:00,26.0,12.0,-100.00,North,5,6.0,15.0,55,-99.99,,,-99.99,,2013-02-21 07:32:00,
2013-02-21 02:42:00,26.0,12.0,-100.00,SSW,195,2.0,10.0,55,-99.99,,,-99.99,,2013-02-21 07:42:00,
2013-02-21 02:52:00,26.0,12.0,-100.00,SSW,195,2.0,10.0,55,-99.99,,,-99.99,,2013-02-21 07:52:00,
2013-02-21 03:02:00,26.0,12.0,-100.00,NNW,335,2.0,22.0,55,-99.99,,,-99.99,,2013-02-21 08:02:00,
2013-02-21 03:11:00,26.0,12.0,-100.00,North,10,3.0,16.0,55,-99.99,,,-99.99,,2013-02-21 08:11:00,
2013-02-21 03:21:00,26.0,12.0,-100.00,North,10,3.0,16.0,55,-99.99,,,-99.99,,2013-02-21 08:21:00,
2013-02-21 03:32:00,25.0,11.0,-100.00,NNW,345,8.0,20.0,55,-99.99,,,-99.99,,2013-02-21 08:32:00,
2013-02-21 03:42:00,25.0,11.0,-100.00,NNW,335,5.0,16.0,55,-99.99,,,-99.99,,2013-02-21 08:42:00,
2013-02-21 03:52:00,25.0,11.0,-100.00,North,5,2.0,21.0,55,-99.99,,,-99.99,,2013-02-21 08:52:00,
2013-02-21 04:02:00,25.0,11.0,-100.00,SSW,200,7.0,10.0,55,-99.99,,,-99.99,,2013-02-21 09:02:00,
2013-02-21 04:10:00,25.0,10.0,-100.00,North,10,3.0,7.0,54,-99.99,,,-99.99,,2013-02-21 09:10:00,
2013-02-21 04:11:00,25.0,11.0,-100.00,SW,215,5.0,15.0,54,-99.99,,,-99.99,,2013-02-21 09:11:00,
2013-02-21 04:22:00,25.0,11.0,-100.00,WNW,290,2.0,9.0,54,-99.99,,,-99.99,,2013-02-21 09:22:00,
2013-02-21 04:32:00,25.0,11.0,-100.00,West,280,1.0,5.0,55,-99.99,,,-99.99,,2013-02-21 09:32:00,
2013-02-21 04:42:00,24.0,11.0,-100.00,NNE,25,2.0,5.0,55,-99.99,,,-99.99,,2013-02-21 09:42:00,
2013-02-21 04:52:00,25.0,10.0,-100.00,North,10,3.0,7.0,54,-99.99,,,-99.99,,2013-02-21 09:52:00,
2013-02-21 05:01:00,25.0,10.0,-100.00,North,10,3.0,7.0,54,-99.99,,,-99.99,,2013-02-21 10:01:00,
2013-02-21 05:41:00,24.0,10.0,-100.00,NNW,330,2.0,9.0,55,-99.99,,,-99.99,,2013-02-21 10:41:00,
2013-02-21 05:51:00,24.0,10.0,-100.00,NNW,330,2.0,9.0,55,-99.99,,,-99.99,,2013-02-21 10:51:00,
2013-02-21 06:01:00,24.0,10.0,-100.00,NW,305,6.0,14.0,55,-99.99,,,-99.99,,2013-02-21 11:01:00,
2013-02-21 06:11:00,24.0,10.0,-100.00,North,10,7.0,15.0,55,-99.99,,,-99.99,,2013-02-21 11:11:00,
2013-02-21 06:21:00,24.0,11.0,-100.00,North,355,2.0,15.0,56,-99.99,,,-99.99,,2013-02-21 11:21:00,
2013-02-21 06:31:00,24.0,11.0,-100.00,NW,310,5.0,13.0,58,-99.99,,,-99.99,,2013-02-21 11:31:00,
2013-02-21 06:41:00,24.0,11.0,-100.00,NNW,330,5.0,10.0,58,-99.99,,,-99.99,,2013-02-21 11:41:00,
2013-02-21 06:51:00,23.0,12.0,-100.00,WNW,295,6.0,12.0,61,-99.99,,,-99.99,,2013-02-21 11:51:00,
2013-02-21 07:01:00,23.0,12.0,-100.00,West,280,3.0,7.0,62,-99.99,,,-99.99,,2013-02-21 12:01:00,
2013-02-21 07:11:00,23.0,12.0,-100.00,NNW,340,7.0,10.0,62,-99.99,,,-99.99,,2013-02-21 12:11:00,
2013-02-21 07:22:00,23.0,11.0,-100.00,WNW,290,13.0,23.0,60,-99.99,,,-99.99,,2013-02-21 12:22:00,
2013-02-21 07:32:00,23.0,10.0,-100.00,NW,315,10.0,22.0,57,-99.99,,,-99.99,,2013-02-21 12:32:00,
2013-02-21 07:43:00,23.0,9.0,-100.00,WNW,295,16.0,29.0,55,-99.99,,,-99.99,,2013-02-21 12:43:00,
2013-02-21 07:52:00,23.0,9.0,-100.00,West,280,5.0,29.0,55,-99.99,,,-99.99,,2013-02-21 12:52:00,
2013-02-21 08:02:00,23.0,10.0,-100.00,NNW,340,3.0,18.0,56,-99.99,,,-99.99,,2013-02-21 13:02:00,
2013-02-21 08:12:00,23.0,10.0,-100.00,North,10,7.0,17.0,57,-99.99,,,-99.99,,2013-02-21 13:12:00,
2013-02-21 08:22:00,23.0,10.0,-100.00,North,355,13.0,18.0,57,-99.99,,,-99.99,,2013-02-21 13:22:00,
2013-02-21 08:32:00,23.0,10.0,-100.00,North,355,13.0,18.0,57,-99.99,,,-99.99,,2013-02-21 13:32:00,
2013-02-21 08:42:00,22.0,10.0,-100.00,North,0,3.0,9.0,58,-99.99,,,-99.99,,2013-02-21 13:42:00,
2013-02-21 08:52:00,22.0,10.0,-100.00,North,350,5.0,10.0,58,-99.99,,,-99.99,,2013-02-21 13:52:00,
2013-02-21 09:02:00,23.0,10.0,-100.00,NW,305,9.0,17.0,58,-99.99,,,-99.99,,2013-02-21 14:02:00,
2013-02-21 09:11:00,23.0,10.0,-100.00,North,350,10.0,28.0,57,-99.99,,,-99.99,,2013-02-21 14:11:00,
2013-02-21 09:22:00,23.0,9.0,-100.00,North,0,12.0,21.0,56,-99.99,,,-99.99,,2013-02-21 14:22:00,
2013-02-21 09:32:00,23.0,8.0,-100.00,NNW,340,16.0,24.0,53,-99.99,,,-99.99,,2013-02-21 14:32:00,
2013-02-21 09:42:00,23.0,8.0,-100.00,NNW,340,8.0,25.0,52,-99.99,,,-99.99,,2013-02-21 14:42:00,
2013-02-21 09:52:00,23.0,7.0,-100.00,NNW,345,9.0,14.0,50,-99.99,,,-99.99,,2013-02-21 14:52:00,
2013-02-21 10:02:00,24.0,8.0,-100.00,NNW,335,7.0,14.0,50,-99.99,,,-99.99,,2013-02-21 15:02:00,
2013-02-21 10:10:00,23.0,7.0,-100.00,NNW,330,10.0,30.0,50,-99.99,,,-99.99,,2013-02-21 15:10:00,
2013-02-21 10:12:00,23.0,8.0,-100.00,North,350,16.0,25.0,51,-99.99,,,-99.99,,2013-02-21 15:12:00,
2013-02-21 10:22:00,23.0,8.0,-100.00,North,10,10.0,20.0,51,-99.99,,,-99.99,,2013-02-21 15:22:00,
2013-02-21 10:32:00,24.0,8.0,-100.00,North,0,15.0,28.0,51,-99.99,,,-99.99,,2013-02-21 15:32:00,
2013-02-21 10:42:00,23.0,8.0,-100.00,North,0,18.0,24.0,51,-99.99,,,-99.99,,2013-02-21 15:42:00,
2013-02-21 10:52:00,23.0,7.0,-100.00,NNW,330,10.0,30.0,50,-99.99,,,-99.99,,2013-02-21 15:52:00,
2013-02-21 11:02:00,23.0,7.0,-100.00,NNW,330,10.0,30.0,50,-99.99,,,-99.99,,2013-02-21 16:02:00,
2013-02-21 13:12:00,26.0,8.0,-100.00,North,5,14.0,23.0,46,-99.99,,,-99.99,,2013-02-21 18:12:00,
2013-02-21 13:22:00,26.0,9.0,-100.00,North,355,17.0,33.0,47,-99.99,,,-99.99,,2013-02-21 18:22:00,
2013-02-21 13:32:00,26.0,9.0,-100.00,North,355,17.0,33.0,47,-99.99,,,-99.99,,2013-02-21 18:32:00,
2013-02-21 13:42:00,26.0,8.0,-100.00,North,350,13.0,25.0,46,-99.99,,,-99.99,,2013-02-21 18:42:00,
2013-02-21 13:52:00,26.0,8.0,-100.00,North,355,14.0,24.0,46,-99.99,,,-99.99,,2013-02-21 18:52:00,
2013-02-21 14:02:00,27.0,9.0,-100.00,North,10,13.0,22.0,46,-99.99,,,-99.99,,2013-02-21 19:02:00,
2013-02-21 14:12:00,27.0,8.0,-100.00,North,355,15.0,23.0,45,-99.99,,,-99.99,,2013-02-21 19:12:00,
2013-02-21 14:21:00,27.0,9.0,-100.00,NW,315,10.0,20.0,45,-99.99,,,-99.99,,2013-02-21 19:21:00,
2013-02-21 14:32:00,27.0,9.0,-100.00,NNW,340,13.0,25.0,46,-99.99,,,-99.99,,2013-02-21 19:32:00,
2013-02-21 14:42:00,27.0,9.0,-100.00,North,355,13.0,22.0,46,-99.99,,,-99.99,,2013-02-21 19:42:00,
2013-02-21 14:52:00,28.0,9.0,-100.00,NW,320,9.0,18.0,45,-99.99,,,-99.99,,2013-02-21 19:52:00,
2013-02-21 15:01:00,28.0,10.0,-100.00,NNW,340,10.0,20.0,45,-99.99,,,-99.99,,2013-02-21 20:01:00,
2013-02-21 15:11:00,29.0,10.0,-100.00,North,10,9.0,23.0,45,-99.99,,,-99.99,,2013-02-21 20:11:00,
2013-02-21 15:21:00,29.0,10.0,-100.00,North,350,6.0,18.0,45,-99.99,,,-99.99,,2013-02-21 20:21:00,
2013-02-21 15:32:00,29.0,10.0,-100.00,NNW,345,10.0,15.0,45,-99.99,,,-99.99,,2013-02-21 20:32:00,
2013-02-21 15:42:00,28.0,9.0,-100.00,NW,310,12.0,21.0,44,-99.99,,,-99.99,,2013-02-21 20:42:00,
2013-02-21 15:52:00,28.0,10.0,-100.00,North,350,7.0,23.0,46,-99.99,,,-99.99,,2013-02-21 20:52:00,
2013-02-21 16:02:00,29.0,10.0,-100.00,North,5,13.0,22.0,45,-99.99,,,-99.99,,2013-02-21 21:02:00,
2013-02-21 16:10:00,28.0,11.0,-100.00,NW,325,12.0,25.0,47,-99.99,,,-99.99,,2013-02-21 21:10:00,
2013-02-21 16:12:00,29.0,11.0,-100.00,North,350,14.0,23.0,46,-99.99,,,-99.99,,2013-02-21 21:12:00,
2013-02-21 16:22:00,29.0,10.0,-100.00,NNW,335,12.0,27.0,45,-99.99,,,-99.99,,2013-02-21 21:22:00,
2013-02-21 16:32:00,29.0,11.0,-100.00,NNW,335,10.0,28.0,46,-99.99,,,-99.99,,2013-02-21 21:32:00,
2013-02-21 16:42:00,29.0,11.0,-100.00,NNW,345,12.0,28.0,46,-99.99,,,-99.99,,2013-02-21 21:42:00,
2013-02-21 16:52:00,28.0,11.0,-100.00,NW,325,12.0,25.0,47,-99.99,,,-99.99,,2013-02-21 21:52:00,
2013-02-21 17:01:00,28.0,11.0,-100.00,NW,325,12.0,25.0,47,-99.99,,,-99.99,,2013-02-21 22:01:00,
2013-02-21 18:42:00,26.0,10.0,-100.00,NNW,340,12.0,22.0,51,-99.99,,,-99.99,,2013-02-21 23:42:00,
2013-02-21 18:53:00,25.0,10.0,-100.00,North,5,12.0,21.0,51,-99.99,,,-99.99,,2013-02-21 23:53:00,
2013-02-21 19:02:00,25.0,10.0,-100.00,North,355,8.0,21.0,52,-99.99,,,-99.99,,2013-02-22 00:02:00,
2013-02-21 19:11:00,25.0,11.0,-100.00,NNW,345,9.0,20.0,53,-99.99,,,-99.99,,2013-02-22 00:11:00,
2013-02-21 19:22:00,25.0,11.0,-100.00,North,5,8.0,15.0,53,-99.99,,,-99.99,,2013-02-22 00:22:00,
2013-02-21 19:42:00,25.0,11.0,-100.00,NNW,340,10.0,17.0,54,-99.99,,,-99.99,,2013-02-22 00:42:00,
2013-02-21 19:52:00,25.0,11.0,-100.00,NNW,345,7.0,15.0,55,-99.99,,,-99.99,,2013-02-22 00:52:00,
2013-02-21 20:01:00,26.0,12.0,-100.00,North,5,10.0,15.0,56,-99.99,,,-99.99,,2013-02-22 01:01:00,
2013-02-21 20:11:00,26.0,13.0,-100.00,North,350,8.0,21.0,57,-99.99,,,-99.99,,2013-02-22 01:11:00,
2013-02-21 20:22:00,26.0,13.0,-100.00,North,0,13.0,20.0,57,-99.99,,,-99.99,,2013-02-22 01:22:00,
2013-02-21 20:32:00,26.0,13.0,-100.00,North,0,13.0,20.0,57,-99.99,,,-99.99,,2013-02-22 01:32:00,
2013-02-21 20:42:00,27.0,15.0,-100.00,NNE,15,14.0,18.0,59,-99.99,,,-99.99,,2013-02-22 01:42:00,
2013-02-21 20:52:00,28.0,15.0,-100.00,NNE,25,13.0,20.0,59,-99.99,,,-99.99,,2013-02-22 01:52:00,
2013-02-21 21:42:00,28.0,16.0,-100.00,NNE,15,10.0,22.0,61,-99.99,,,-99.99,,2013-02-22 02:42:00,
2013-02-21 21:52:00,28.0,16.0,-100.00,North,10,12.0,18.0,61,-99.99,,,-99.99,,2013-02-22 02:52:00,
2013-02-21 22:22:00,27.0,16.0,-100.00,NNE,15,6.0,12.0,62,-99.99,,,-99.99,,2013-02-22 03:22:00,
2013-02-21 22:30:00,28.0,16.0,-100.00,North,10,8.0,14.0,62,-99.99,,,-99.99,,2013-02-22 03:30:00,
2013-02-21 22:32:00,28.0,16.0,-100.00,North,5,10.0,16.0,61,-99.99,,,-99.99,,2013-02-22 03:32:00,
2013-02-21 22:42:00,28.0,16.0,-100.00,North,355,8.0,17.0,61,-99.99,,,-99.99,,2013-02-22 03:42:00,
2013-02-21 22:52:00,28.0,16.0,-100.00,NNE,15,5.0,16.0,62,-99.99,,,-99.99,,2013-02-22 03:52:00,
2013-02-21 23:02:00,28.0,16.0,-100.00,NNE,15,5.0,16.0,62,-99.99,,,-99.99,,2013-02-22 04:02:00,
2013-02-21 23:11:00,28.0,16.0,-100.00,North,10,8.0,14.0,62,-99.99,,,-99.99,,2013-02-22 04:11:00,
2013-02-21 23:21:00,28.0,16.0,-100.00,North,10,8.0,14.0,62,-99.99,,,-99.99,,2013-02-22 04:21:00,